| time (UTC) | temp C | wind direction | speed KPH | gust KPH | rain 1hr cm | rain 24hr cm | rain mn cm | humidity % | barometer mb |
| 20260901060051 | 14 | 360 | 8.0 | 16.1 | 0.00 | 0.23 | 0.00 | 60 | 977.9 |
| 20260901055550 | 14 | 360 | 8.0 | 14.5 | 0.00 | 3.61 | 0.00 | 59 | 977.9 |
| 20260901055050 | 14 | 245 | 8.0 | 14.5 | 0.00 | 3.61 | 0.00 | 59 | 977.8 |
| 20260901054549 | 14 | 244 | 6.4 | 14.5 | 0.00 | 3.61 | 0.00 | 59 | 977.8 |
| 20260901054049 | 14 | 245 | 8.0 | 19.3 | 0.00 | 3.61 | 0.00 | 59 | 977.7 |
| 20260901053553 | 14 | 236 | 9.7 | 19.3 | 0.00 | 3.61 | 0.00 | 59 | 977.6 |
| 20260901053115 | 14 | 242 | 11.3 | 16.1 | 0.00 | 3.61 | 0.00 | 59 | 977.5 |
| 20260901052546 | 14 | 233 | 6.4 | 12.9 | 0.00 | 3.61 | 0.00 | 58 | 977.4 |
| 20260901052045 | 14 | 248 | 6.4 | 12.9 | 0.00 | 3.61 | 0.00 | 58 | 977.6 |
| 20260901051602 | 14 | 240 | 8.0 | 16.1 | 0.00 | 3.61 | 0.00 | 57 | 977.7 |
| 20260901051043 | 14 | 236 | 8.0 | 16.1 | 0.00 | 3.61 | 0.00 | 57 | 977.6 |
| 20260901050542 | 15 | 235 | 11.3 | 16.1 | 0.00 | 3.61 | 0.00 | 57 | 977.6 |
| 20260901050041 | 15 | 242 | 9.7 | 16.1 | 0.00 | 3.61 | 0.00 | 57 | 977.4 |
| 20260901045540 | 15 | 239 | 12.9 | 16.1 | 0.00 | 5.00 | 0.00 | 57 | 977.5 |
| 20260901045040 | 15 | 244 | 9.7 | 14.5 | 0.00 | 5.00 | 0.00 | 57 | 977.4 |
| 20260901044552 | 15 | 239 | 11.3 | 17.7 | 0.00 | 5.00 | 0.00 | 57 | 977.4 |
| 20260901044039 | 15 | 240 | 9.7 | 17.7 | 0.00 | 5.00 | 0.00 | 58 | 977.3 |
| 20260901043538 | 14 | 229 | 11.3 | 16.1 | 0.00 | 5.00 | 0.00 | 58 | 977.2 |
| 20260901043038 | 14 | 233 | 8.0 | 12.9 | 0.00 | 5.00 | 0.00 | 58 | 977.2 |
| 20260901042537 | 14 | 236 | 6.4 | 11.3 | 0.00 | 5.00 | 0.00 | 58 | 977.2 |
| 20260901042036 | 14 | 226 | 6.4 | 11.3 | 0.00 | 5.00 | 0.00 | 57 | 977.2 |
| 20260901041536 | 14 | 224 | 6.4 | 14.5 | 0.00 | 5.00 | 0.00 | 57 | 977.1 |
| 20260901041035 | 14 | 237 | 8.0 | 16.1 | 0.00 | 5.00 | 0.00 | 57 | 977.1 |
| 20260901040534 | 14 | 230 | 8.0 | 12.9 | 0.00 | 5.00 | 0.00 | 57 | 977.1 |
| 20260901040039 | 14 | 221 | 6.4 | 14.5 | 0.00 | 5.00 | 0.00 | 56 | 977.0 |
| 20260901035534 | 14 | 236 | 4.8 | 12.9 | 0.00 | 5.00 | 0.00 | 56 | 977.0 |
| 20260901035033 | 14 | 227 | 4.8 | 9.7 | 0.00 | 5.00 | 0.00 | 55 | 977.0 |
| 20260901034532 | 14 | 217 | 3.2 | 9.7 | 0.00 | 5.00 | 0.00 | 54 | 976.9 |
| 20260901034031 | 15 | 229 | 1.6 | 11.3 | 0.00 | 5.00 | 0.00 | 54 | 976.9 |
| 20260901033531 | 15 | 239 | 4.8 | 11.3 | 0.00 | 5.00 | 0.00 | 54 | 977.0 |
| 20260901033033 | 15 | 236 | 1.6 | 8.0 | 0.00 | 5.00 | 0.00 | 54 | 976.9 |
| 20260901032530 | 15 | 223 | 1.6 | 4.8 | 0.00 | 5.00 | 0.00 | 54 | 976.8 |
| 20260901032029 | 15 | 223 | 0.0 | 8.0 | 0.00 | 5.00 | 0.00 | 54 | 976.8 |
| 20260901031532 | 15 | 219 | 0.0 | 8.0 | 0.00 | 5.00 | 0.00 | 54 | 976.8 |
| 20260901031030 | 15 | 225 | 1.6 | 9.7 | 0.00 | 5.00 | 0.00 | 54 | 976.7 |
| 20260901030527 | 15 | 228 | 4.8 | 9.7 | 0.00 | 5.00 | 0.00 | 54 | 976.8 |
| 20260901030028 | 15 | 224 | 6.4 | 11.3 | 0.00 | 5.00 | 0.00 | 54 | 976.7 |
| 20260901025526 | 15 | 229 | 4.8 | 9.7 | 0.00 | 5.00 | 0.00 | 54 | 976.7 |
| 20260901025027 | 15 | 233 | 3.2 | 9.7 | 0.00 | 5.00 | 0.00 | 54 | 976.5 |
| 20260901024525 | 15 | 225 | 6.4 | 9.7 | 0.00 | 5.00 | 0.00 | 55 | 976.6 |
| 20260901024028 | 14 | 236 | 3.2 | 8.0 | 0.00 | 5.00 | 0.00 | 55 | 976.5 |
| 20260901023525 | 14 | 237 | 3.2 | 8.0 | 0.00 | 5.00 | 0.00 | 55 | 976.6 |
| 20260901023036 | 14 | 240 | 3.2 | 8.0 | 0.00 | 5.00 | 0.00 | 54 | 976.5 |
| 20260901022523 | 15 | 234 | 3.2 | 8.0 | 0.00 | 5.00 | 0.00 | 53 | 976.5 |
| 20260901022023 | 15 | 240 | 4.8 | 9.7 | 0.00 | 5.00 | 0.00 | 53 | 976.5 |
| 20260901021524 | 15 | 237 | 4.8 | 9.7 | 0.00 | 5.00 | 0.00 | 53 | 976.4 |
| 20260901010526 | 16 | 360 | 12.9 | 19.3 | 0.00 | 5.00 | 0.05 | 51 | 975.6 |
| 20260901010024 | 16 | 360 | 9.7 | 22.5 | 0.00 | 5.00 | 0.05 | 50 | 975.6 |
| 20260901005525 | 17 | 244 | 12.9 | 22.5 | 0.00 | 5.00 | 0.05 | 50 | 975.4 |
| 20260901005025 | 17 | 218 | 14.5 | 25.7 | 0.00 | 5.00 | 0.05 | 49 | 975.2 |
| 20260901004523 | 17 | 240 | 17.7 | 25.7 | 0.00 | 5.00 | 0.05 | 49 | 975.1 |
| 20260901004021 | 17 | 232 | 17.7 | 25.7 | 0.00 | 5.00 | 0.05 | 49 | 975.2 |
| 20260901003520 | 17 | 234 | 17.7 | 29.0 | 0.03 | 5.00 | 0.05 | 50 | 975.1 |
| 20260901003019 | 17 | 234 | 17.7 | 29.0 | 0.05 | 5.00 | 0.05 | 51 | 974.9 |
| 20260831232056 | 20 | 232 | 24.1 | 37.0 | 0.00 | 4.95 | 3.56 | 52 | 973.3 |
| 20260831231557 | 20 | 229 | 24.1 | 51.5 | 0.00 | 4.95 | 3.56 | 53 | 973.2 |
| 20260831231056 | 20 | 269 | 32.2 | 53.1 | 0.00 | 4.95 | 3.56 | 52 | 973.2 |
| 20260831230554 | 21 | 234 | 32.2 | 53.1 | 0.00 | 4.95 | 3.56 | 52 | 973.1 |
| 20260831230108 | 21 | 218 | 32.2 | 46.7 | 0.00 | 4.95 | 3.56 | 51 | 972.9 |
| 20260831225557 | 21 | 240 | 29.0 | 49.9 | 0.00 | 4.95 | 3.56 | 50 | 972.8 |
| 20260831225054 | 21 | 229 | 32.2 | 49.9 | 0.00 | 4.95 | 3.56 | 50 | 972.7 |
| 20260831224554 | 21 | 226 | 32.2 | 53.1 | 0.00 | 4.95 | 3.56 | 50 | 972.5 |
| 20260831224055 | 21 | 218 | 30.6 | 53.1 | 0.00 | 4.95 | 3.56 | 50 | 972.4 |
| 20260831223558 | 21 | 239 | 32.2 | 49.9 | 0.00 | 4.95 | 3.56 | 50 | 972.4 |
| 20260831223055 | 21 | 245 | 27.4 | 45.1 | 0.00 | 4.95 | 3.56 | 50 | 972.3 |
| 20260831222555 | 21 | 215 | 22.5 | 45.1 | 0.00 | 4.95 | 3.56 | 50 | 972.4 |
| 20260831222055 | 22 | 292 | 17.7 | 61.2 | 0.00 | 4.95 | 3.56 | 49 | 972.3 |
| 20260831221602 | 22 | 214 | 40.2 | 61.2 | 0.00 | 4.95 | 3.56 | 49 | 972.2 |
| 20260831221053 | 22 | 224 | 19.3 | 53.1 | 0.00 | 4.95 | 3.56 | 49 | 972.4 |
| 20260831220553 | 22 | 208 | 29.0 | 49.9 | 0.00 | 4.95 | 3.56 | 48 | 972.4 |
| 20260831215556 | 22 | 235 | 17.7 | 41.8 | 0.00 | 4.95 | 3.56 | 49 | 972.2 |
| 20260831215053 | 22 | 219 | 20.9 | 41.8 | 0.00 | 4.95 | 3.56 | 49 | 972.1 |
| 20260831214553 | 22 | 227 | 16.1 | 49.9 | 0.00 | 4.95 | 3.56 | 49 | 971.9 |
| 20260831214053 | 21 | 249 | 24.1 | 49.9 | 0.00 | 4.95 | 3.56 | 49 | 972.1 |
| 20260831213553 | 22 | 221 | 14.5 | 45.1 | 0.00 | 4.95 | 3.56 | 48 | 972.3 |
| 20260831213058 | 22 | 223 | 22.5 | 45.1 | 0.00 | 4.95 | 3.56 | 46 | 972.4 |
| 20260831212552 | 22 | 252 | 12.9 | 49.9 | 0.00 | 4.95 | 3.56 | 46 | 972.4 |
| 20260831212056 | 22 | 223 | 20.9 | 35.4 | 0.00 | 4.95 | 3.56 | 45 | 972.3 |
| 20260831211602 | 22 | 227 | 8.0 | 19.3 | 0.00 | 4.95 | 3.56 | 47 | 972.0 |
| 20260831211051 | 22 | 227 | 9.7 | 19.3 | 0.00 | 4.95 | 3.56 | 46 | 971.9 |
| 20260831210551 | 22 | 232 | 6.4 | 16.1 | 0.00 | 4.95 | 3.56 | 46 | 971.8 |
| 20260831210050 | 22 | 221 | 8.0 | 16.1 | 0.00 | 4.95 | 3.56 | 46 | 971.8 |
| 20260831205550 | 22 | 238 | 4.8 | 24.1 | 0.00 | 4.95 | 3.56 | 45 | 971.9 |
| 20260831205050 | 22 | 215 | 8.0 | 24.1 | 0.00 | 4.95 | 3.56 | 45 | 972.0 |
| 20260831204554 | 22 | 206 | 6.4 | 22.5 | 0.00 | 4.95 | 3.56 | 45 | 972.1 |
| 20260831204050 | 22 | 230 | 11.3 | 22.5 | 0.00 | 4.95 | 3.56 | 45 | 972.1 |
| 20260831203550 | 22 | 222 | 11.3 | 40.2 | 0.00 | 4.95 | 3.56 | 44 | 972.2 |
| 20260831203050 | 22 | 221 | 14.5 | 29.0 | 0.00 | 4.95 | 3.56 | 44 | 972.4 |
| 20260831202551 | 22 | 229 | 11.3 | 27.4 | 0.00 | 4.95 | 3.56 | 43 | 972.4 |
| 20260831202048 | 22 | 192 | 12.9 | 32.2 | 0.00 | 4.95 | 3.56 | 43 | 972.2 |
| 20260831201548 | 22 | 198 | 12.9 | 32.2 | 0.00 | 4.95 | 3.56 | 42 | 972.2 |
| 20260831201049 | 22 | 233 | 11.3 | 24.1 | 0.00 | 4.95 | 3.56 | 42 | 972.2 |
| 20260831200547 | 22 | 198 | 9.7 | 17.7 | 0.00 | 4.95 | 3.56 | 43 | 972.4 |
| 20260831200053 | 22 | 182 | 8.0 | 16.1 | 0.00 | 4.95 | 3.56 | 43 | 972.6 |
| 20260831195544 | 22 | 197 | 4.8 | 25.7 | 0.00 | 4.95 | 3.56 | 44 | 972.7 |
| 20260831195044 | 22 | 220 | 12.9 | 25.7 | 0.00 | 4.95 | 3.56 | 44 | 972.8 |
| 20260831194544 | 22 | 148 | 8.0 | 30.6 | 0.00 | 4.95 | 3.56 | 44 | 972.8 |
| 20260831194043 | 21 | 111 | 12.9 | 30.6 | 0.00 | 4.95 | 3.56 | 44 | 973.0 |
| 20260831193543 | 21 | 234 | 6.4 | 29.0 | 0.00 | 4.95 | 3.56 | 44 | 973.1 |
| 20260831193045 | 21 | 190 | 4.8 | 12.9 | 0.00 | 4.95 | 3.56 | 44 | 973.1 |
| 20260831192542 | 21 | 243 | 3.2 | 20.9 | 0.00 | 4.95 | 3.56 | 43 | 973.2 |
| 20260831192045 | 21 | 209 | 6.4 | 20.9 | 0.00 | 4.95 | 3.56 | 42 | 973.3 |
| 20260831191542 | 22 | 196 | 8.0 | 20.9 | 0.00 | 4.95 | 3.56 | 42 | 973.4 |
| 20260831191042 | 22 | 204 | 8.0 | 20.9 | 0.00 | 4.95 | 3.56 | 41 | 973.4 |
| 20260831190542 | 22 | 182 | 9.7 | 20.9 | 0.00 | 4.95 | 3.56 | 40 | 973.6 |
| 20260831190100 | 22 | 200 | 9.7 | 17.7 | 0.00 | 4.95 | 3.56 | 40 | 973.5 |
| 20260831185542 | 22 | 232 | 8.0 | 20.9 | 0.00 | 4.95 | 3.56 | 40 | 973.7 |
| 20260831185041 | 22 | 198 | 12.9 | 30.6 | 0.00 | 4.95 | 3.56 | 39 | 973.6 |
| 20260831184542 | 22 | 238 | 14.5 | 27.4 | 0.00 | 4.95 | 3.56 | 39 | 973.8 |
| 20260831184041 | 22 | 227 | 11.3 | 25.7 | 0.00 | 4.95 | 3.56 | 39 | 974.1 |
| 20260831183541 | 22 | 190 | 8.0 | 32.2 | 0.00 | 4.95 | 3.56 | 40 | 973.8 |
| 20260831183041 | 22 | 186 | 14.5 | 32.2 | 0.00 | 4.95 | 3.56 | 38 | 974.0 |
| 20260831182541 | 22 | 218 | 16.1 | 30.6 | 0.00 | 4.95 | 3.56 | 38 | 974.1 |
| 20260831182040 | 22 | 209 | 8.0 | 24.1 | 0.00 | 4.95 | 3.56 | 41 | 974.1 |
| 20260831181540 | 22 | 190 | 11.3 | 30.6 | 0.00 | 4.95 | 3.56 | 41 | 974.2 |
| 20260831181040 | 23 | 191 | 14.5 | 30.6 | 0.00 | 4.95 | 3.56 | 40 | 974.2 |
| 20260831180538 | 22 | 186 | 16.1 | 35.4 | 0.00 | 4.95 | 3.56 | 41 | 974.4 |
| 20260831180046 | 22 | 186 | 12.9 | 35.4 | 0.00 | 4.95 | 3.56 | 42 | 974.4 |
| 20260831175537 | 22 | 199 | 16.1 | 35.4 | 0.00 | 4.95 | 3.56 | 42 | 974.5 |
| 20260831175037 | 22 | 205 | 9.7 | 29.0 | 0.00 | 4.95 | 3.56 | 43 | 974.7 |
| 20260831174540 | 22 | 182 | 14.5 | 24.1 | 0.00 | 4.95 | 3.56 | 41 | 974.9 |
| 20260831174036 | 22 | 200 | 11.3 | 32.2 | 0.00 | 4.95 | 3.56 | 43 | 975.1 |
| 20260831173534 | 22 | 193 | 14.5 | 32.2 | 0.00 | 4.95 | 3.56 | 43 | 975.1 |
| 20260831173035 | 22 | 197 | 12.9 | 27.4 | 0.00 | 4.95 | 3.56 | 45 | 975.1 |
| 20260831172535 | 22 | 244 | 12.9 | 30.6 | 0.00 | 4.95 | 3.56 | 45 | 975.3 |
| 20260831172034 | 22 | 235 | 14.5 | 30.6 | 0.00 | 4.95 | 3.56 | 48 | 975.4 |
| 20260831171534 | 22 | 208 | 8.0 | 27.4 | 0.00 | 4.95 | 3.56 | 49 | 975.4 |
| 20260831171033 | 22 | 187 | 8.0 | 27.4 | 0.00 | 4.95 | 3.56 | 48 | 975.5 |
| 20260831170532 | 22 | 189 | 9.7 | 25.7 | 0.00 | 4.95 | 3.56 | 49 | 975.5 |
| 20260831170031 | 22 | 186 | 11.3 | 25.7 | 0.00 | 4.95 | 3.56 | 49 | 975.6 |
| 20260831165535 | 22 | 76 | 9.7 | 25.7 | 0.00 | 4.95 | 3.56 | 49 | 975.7 |
| 20260831165031 | 22 | 222 | 9.7 | 25.7 | 0.00 | 4.95 | 3.56 | 49 | 975.7 |
| 20260831164545 | 22 | 182 | 9.7 | 24.1 | 0.00 | 4.95 | 3.56 | 49 | 975.7 |
| 20260831164030 | 22 | 177 | 8.0 | 20.9 | 0.00 | 4.95 | 3.56 | 50 | 975.8 |
| 20260831163529 | 21 | 180 | 11.3 | 30.6 | 0.00 | 4.95 | 3.56 | 51 | 976.0 |
| 20260831163028 | 21 | 144 | 16.1 | 32.2 | 0.00 | 4.95 | 3.56 | 50 | 976.0 |
| 20260831162527 | 21 | 170 | 11.3 | 24.1 | 0.00 | 4.95 | 3.56 | 51 | 976.1 |
| 20260831162026 | 21 | 200 | 9.7 | 24.1 | 0.00 | 4.95 | 3.56 | 50 | 976.2 |
| 20260831161525 | 21 | 360 | 11.3 | 24.1 | 0.00 | 4.95 | 3.56 | 51 | 976.1 |
| 20260831161025 | 21 | 196 | 11.3 | 20.9 | 0.00 | 4.95 | 3.56 | 50 | 976.3 |
| 20260831160524 | 21 | 236 | 8.0 | 20.9 | 0.00 | 4.95 | 3.56 | 48 | 976.3 |
| 20260831160023 | 21 | 215 | 9.7 | 25.7 | 0.00 | 4.95 | 3.56 | 50 | 976.3 |
| 20260831155524 | 21 | 209 | 4.8 | 17.7 | 0.00 | 4.95 | 3.56 | 53 | 976.2 |
| 20260831155021 | 21 | 190 | 6.4 | 17.7 | 0.00 | 4.95 | 3.56 | 52 | 976.3 |
| 20260831154519 | 21 | 198 | 8.0 | 17.7 | 0.00 | 4.95 | 3.56 | 52 | 976.3 |
| 20260831154020 | 21 | 188 | 6.4 | 14.5 | 0.00 | 4.95 | 3.56 | 50 | 976.2 |
| 20260831153517 | 21 | 177 | 4.8 | 12.9 | 0.00 | 4.95 | 3.56 | 45 | 976.3 |
| 20260831153014 | 21 | 209 | 6.4 | 12.9 | 0.00 | 4.95 | 3.56 | 44 | 976.3 |
| 20260831152515 | 20 | 178 | 4.8 | 16.1 | 0.00 | 4.95 | 3.56 | 47 | 976.4 |
| 20260831152012 | 20 | 194 | 9.7 | 17.7 | 0.00 | 4.95 | 3.56 | 46 | 976.6 |
| 20260831151512 | 20 | 237 | 6.4 | 14.5 | 0.00 | 4.95 | 3.56 | 47 | 976.5 |
| 20260831151009 | 20 | 171 | 6.4 | 16.1 | 0.00 | 4.95 | 3.56 | 47 | 976.5 |
| 20260831150510 | 20 | 194 | 6.4 | 19.3 | 0.00 | 4.95 | 3.56 | 50 | 976.8 |
| 20260831150009 | 20 | 215 | 6.4 | 19.3 | 0.00 | 4.95 | 3.56 | 50 | 976.7 |
| 20260831145504 | 20 | 221 | 6.4 | 19.3 | 0.00 | 4.95 | 3.56 | 52 | 976.7 |
| 20260831145002 | 19 | 220 | 11.3 | 19.3 | 0.00 | 4.95 | 3.56 | 52 | 976.7 |
| 20260831144505 | 19 | 240 | 8.0 | 24.1 | 0.00 | 4.95 | 3.56 | 54 | 976.5 |
| 20260831144100 | 18 | 234 | 12.9 | 24.1 | 0.00 | 4.95 | 3.56 | 54 | 976.6 |
| 20260831143559 | 18 | 224 | 11.3 | 22.5 | 0.00 | 4.95 | 3.56 | 55 | 976.6 |
| 20260831143103 | 18 | 228 | 4.8 | 16.1 | 0.00 | 4.95 | 3.56 | 56 | 976.6 |
| 20260831142556 | 18 | 226 | 6.4 | 20.9 | 0.00 | 4.95 | 3.56 | 57 | 976.5 |
| 20260831142058 | 18 | 230 | 9.7 | 20.9 | 0.00 | 4.95 | 3.56 | 57 | 976.5 |
| 20260831141603 | 17 | 218 | 3.2 | 11.3 | 0.00 | 4.95 | 3.56 | 58 | 976.5 |
| 20260831141053 | 17 | 231 | 6.4 | 12.9 | 0.00 | 4.95 | 3.56 | 59 | 976.7 |
| 20260831140550 | 17 | 231 | 4.8 | 12.9 | 0.00 | 4.95 | 3.56 | 61 | 976.7 |
| 20260831140052 | 17 | 233 | 4.8 | 12.9 | 0.00 | 4.95 | 3.56 | 62 | 976.6 |
| 20260831135551 | 16 | 220 | 3.2 | 11.3 | 0.00 | 4.95 | 3.56 | 62 | 976.6 |
| 20260831135050 | 16 | 225 | 4.8 | 11.3 | 0.00 | 4.95 | 3.56 | 63 | 976.4 |
| 20260831134554 | 16 | 222 | 1.6 | 8.0 | 0.00 | 4.95 | 3.56 | 63 | 976.5 |
| 20260831134049 | 16 | 229 | 1.6 | 8.0 | 0.00 | 4.95 | 3.56 | 64 | 976.4 |
| 20260831133549 | 16 | 229 | 3.2 | 8.0 | 0.00 | 4.95 | 3.56 | 63 | 976.5 |
| 20260831133049 | 16 | 210 | 4.8 | 8.0 | 0.00 | 4.95 | 3.56 | 64 | 976.4 |
| 20260831132549 | 16 | 217 | 3.2 | 6.4 | 0.00 | 4.95 | 3.56 | 65 | 976.3 |
| 20260831132049 | 16 | 225 | 1.6 | 6.4 | 0.00 | 4.95 | 3.56 | 65 | 976.4 |
| 20260831131552 | 15 | 225 | 1.6 | 9.7 | 0.00 | 4.95 | 3.56 | 65 | 976.4 |
| 20260831131048 | 15 | 225 | 3.2 | 9.7 | 0.00 | 4.95 | 3.56 | 65 | 976.4 |
| 20260831130548 | 15 | 227 | 4.8 | 6.4 | 0.00 | 4.95 | 3.56 | 65 | 976.4 |
| 20260831130049 | 15 | 229 | 1.6 | 6.4 | 0.00 | 4.95 | 3.56 | 66 | 976.3 |
| 20260831125549 | 15 | 223 | 1.6 | 8.0 | 0.00 | 4.95 | 3.56 | 66 | 976.3 |
| 20260831125048 | 15 | 224 | 3.2 | 8.0 | 0.00 | 4.95 | 3.56 | 66 | 976.3 |
| 20260831124549 | 15 | 223 | 0.0 | 8.0 | 0.00 | 4.95 | 3.56 | 67 | 976.3 |
| 20260831124048 | 15 | 223 | 0.0 | 8.0 | 0.00 | 4.95 | 3.56 | 67 | 976.2 |
| 20260831123547 | 15 | 219 | 3.2 | 8.0 | 0.00 | 4.95 | 3.56 | 67 | 976.2 |
| 20260831123047 | 15 | 221 | 1.6 | 8.0 | 0.00 | 4.95 | 3.56 | 67 | 976.2 |
| 20260831122549 | 15 | 207 | 3.2 | 14.5 | 0.00 | 4.95 | 3.56 | 67 | 976.2 |
| 20260831122047 | 15 | 228 | 6.4 | 14.5 | 0.00 | 4.95 | 3.56 | 68 | 976.2 |
| 20260831121547 | 15 | 222 | 3.2 | 11.3 | 0.00 | 4.95 | 3.56 | 68 | 976.0 |
| 20260831121046 | 15 | 234 | 4.8 | 11.3 | 0.00 | 4.95 | 3.56 | 68 | 975.9 |
| 20260831120546 | 15 | 217 | 3.2 | 14.5 | 0.00 | 4.95 | 3.56 | 68 | 975.9 |
| 20260831120045 | 15 | 229 | 4.8 | 16.1 | 0.00 | 4.95 | 3.56 | 68 | 975.9 |
| 20260831115544 | 15 | 228 | 9.7 | 16.1 | 0.00 | 4.95 | 3.56 | 67 | 975.8 |
| 20260831115044 | 15 | 233 | 11.3 | 19.3 | 0.00 | 4.95 | 3.56 | 67 | 975.7 |
| 20260831114544 | 15 | 253 | 12.9 | 20.9 | 0.00 | 4.95 | 3.56 | 68 | 975.6 |
| 20260831114043 | 16 | 244 | 11.3 | 22.5 | 0.00 | 4.95 | 3.56 | 68 | 975.6 |
| 20260831113542 | 16 | 238 | 14.5 | 22.5 | 0.00 | 4.95 | 3.56 | 68 | 975.5 |
| 20260831113041 | 16 | 360 | 12.9 | 22.5 | 0.00 | 4.95 | 3.56 | 68 | 975.5 |
| 20260831112545 | 16 | 240 | 14.5 | 22.5 | 0.00 | 4.95 | 3.56 | 68 | 975.4 |
| 20260831112039 | 16 | 232 | 9.7 | 19.3 | 0.00 | 4.95 | 3.56 | 68 | 975.6 |
| 20260831111551 | 16 | 360 | 11.3 | 17.7 | 0.00 | 4.95 | 3.56 | 68 | 975.5 |
| 20260831111037 | 16 | 360 | 8.0 | 16.1 | 0.00 | 4.95 | 3.56 | 68 | 975.5 |
| 20260831110538 | 16 | 229 | 8.0 | 16.1 | 0.00 | 4.95 | 3.56 | 68 | 975.4 |
| 20260831110045 | 16 | 227 | 9.7 | 17.7 | 0.00 | 4.95 | 3.56 | 69 | 975.4 |
| 20260831105536 | 16 | 225 | 9.7 | 19.3 | 0.00 | 4.95 | 3.56 | 68 | 975.4 |
| 20260831105035 | 16 | 235 | 11.3 | 19.3 | 0.00 | 4.95 | 3.56 | 68 | 975.3 |
| 20260831104549 | 16 | 244 | 9.7 | 12.9 | 0.00 | 4.95 | 3.56 | 68 | 975.2 |
| 20260831104036 | 16 | 233 | 8.0 | 16.1 | 0.00 | 4.95 | 3.56 | 68 | 975.1 |
| 20260831103535 | 16 | 240 | 8.0 | 16.1 | 0.00 | 4.95 | 3.56 | 68 | 975.1 |
| 20260831103036 | 17 | 226 | 8.0 | 17.7 | 0.00 | 4.95 | 3.56 | 68 | 975.1 |
| 20260831102532 | 17 | 229 | 9.7 | 19.3 | 0.00 | 4.95 | 3.56 | 69 | 975.1 |
| 20260831102032 | 17 | 234 | 12.9 | 19.3 | 0.00 | 4.95 | 3.56 | 69 | 975.0 |
| 20260831101534 | 17 | 254 | 12.9 | 19.3 | 0.00 | 4.95 | 3.56 | 69 | 975.0 |
| 20260831101030 | 17 | 239 | 9.7 | 16.1 | 0.00 | 4.95 | 3.56 | 69 | 974.9 |
| 20260831100529 | 17 | 225 | 6.4 | 16.1 | 0.00 | 4.95 | 3.56 | 69 | 975.0 |
| 20260831100028 | 17 | 234 | 4.8 | 12.9 | 0.00 | 4.95 | 3.56 | 69 | 975.1 |
| 20260831095527 | 17 | 228 | 8.0 | 12.9 | 0.00 | 4.95 | 3.56 | 69 | 975.0 |
| 20260831095030 | 17 | 232 | 8.0 | 12.9 | 0.00 | 4.95 | 3.56 | 69 | 974.9 |
| 20260831094530 | 17 | 230 | 6.4 | 12.9 | 0.00 | 4.95 | 3.56 | 69 | 974.9 |
| 20260831094026 | 17 | 221 | 4.8 | 12.9 | 0.00 | 4.95 | 3.56 | 69 | 974.8 |
| 20260831093526 | 17 | 234 | 8.0 | 16.1 | 0.00 | 4.95 | 3.56 | 69 | 974.8 |
| 20260831093037 | 17 | 241 | 6.4 | 14.5 | 0.00 | 4.95 | 3.56 | 69 | 974.7 |
| 20260831092524 | 17 | 231 | 8.0 | 12.9 | 0.00 | 4.95 | 3.56 | 69 | 974.8 |
| 20260831092028 | 17 | 233 | 4.8 | 11.3 | 0.00 | 4.95 | 3.56 | 69 | 974.9 |
| 20260831091524 | 17 | 240 | 1.6 | 11.3 | 0.00 | 4.95 | 3.56 | 69 | 974.9 |
| 20260831091024 | 17 | 227 | 3.2 | 12.9 | 0.00 | 4.95 | 3.56 | 69 | 975.0 |
| 20260831090523 | 17 | 232 | 3.2 | 12.9 | 0.00 | 4.95 | 3.56 | 69 | 975.0 |
| 20260831090026 | 17 | 230 | 6.4 | 16.1 | 0.00 | 4.95 | 3.56 | 69 | 975.0 |
| 20260831085524 | 17 | 240 | 8.0 | 16.1 | 0.00 | 4.95 | 3.56 | 69 | 974.9 |
| 20260831085023 | 17 | 225 | 9.7 | 17.7 | 0.00 | 4.95 | 3.56 | 69 | 975.0 |
| 20260831084523 | 17 | 227 | 6.4 | 14.5 | 0.00 | 4.95 | 3.56 | 69 | 975.0 |
| 20260831084022 | 17 | 232 | 6.4 | 12.9 | 0.00 | 4.95 | 3.56 | 69 | 974.9 |
| 20260831083522 | 17 | 225 | 6.4 | 12.9 | 0.00 | 4.95 | 3.56 | 69 | 974.9 |
| 20260831083023 | 18 | 232 | 4.8 | 12.9 | 0.00 | 4.95 | 3.56 | 69 | 974.9 |
| 20260831082523 | 18 | 225 | 6.4 | 11.3 | 0.00 | 4.95 | 3.56 | 69 | 974.8 |
| 20260831082025 | 18 | 219 | 3.2 | 12.9 | 0.00 | 4.95 | 3.56 | 69 | 974.7 |
| 20260831081522 | 18 | 232 | 8.0 | 16.1 | 0.00 | 4.95 | 3.56 | 69 | 974.8 |
| 20260831081021 | 18 | 223 | 8.0 | 16.1 | 0.00 | 4.95 | 3.56 | 69 | 974.8 |
| 20260831080521 | 18 | 240 | 3.2 | 9.7 | 0.00 | 4.95 | 3.56 | 69 | 974.9 |
| 20260831080024 | 18 | 209 | 3.2 | 8.0 | 0.00 | 4.95 | 3.56 | 69 | 974.8 |
| 20260831075520 | 17 | 196 | 0.0 | 4.8 | 0.00 | 4.95 | 3.56 | 69 | 974.8 |
| 20260831075020 | 17 | 192 | 0.0 | 4.8 | 0.00 | 4.95 | 3.56 | 69 | 974.9 |
| 20260831074521 | 17 | 185 | 0.0 | 4.8 | 0.00 | 4.95 | 3.56 | 69 | 974.9 |
| 20260831074020 | 17 | 202 | 0.0 | 6.4 | 0.00 | 4.95 | 3.56 | 69 | 974.7 |
| 20260831073520 | 17 | 142 | 0.0 | 6.4 | 0.00 | 4.95 | 3.56 | 69 | 974.7 |
| 20260831073020 | 17 | 196 | 3.2 | 6.4 | 0.00 | 4.95 | 3.56 | 69 | 974.6 |
| 20260831072520 | 17 | 190 | 1.6 | 4.8 | 0.00 | 4.95 | 3.56 | 69 | 974.7 |
| 20260831072019 | 17 | 193 | 1.6 | 6.4 | 0.03 | 4.95 | 3.56 | 69 | 974.6 |
| 20260831071619 | 17 | 196 | 3.2 | 6.4 | 0.03 | 4.95 | 3.56 | 69 | 974.6 |
| 20260831071018 | 17 | 194 | 3.2 | 6.4 | 0.08 | 4.95 | 3.56 | 69 | 974.7 |
| 20260831070520 | 17 | 192 | 1.6 | 6.4 | 0.13 | 4.95 | 3.56 | 69 | 974.7 |
| 20260831070018 | 17 | 209 | 1.6 | 4.8 | 0.18 | 4.95 | 3.56 | 69 | 974.6 |
| 20260831065521 | 17 | 170 | 1.6 | 3.2 | 0.20 | 4.95 | 3.56 | 69 | 974.5 |
| 20260831065016 | 17 | 167 | 0.0 | 3.2 | 0.20 | 4.95 | 3.56 | 69 | 974.4 |
| 20260831064517 | 17 | 171 | 0.0 | 8.0 | 0.23 | 4.95 | 3.56 | 69 | 974.5 |
| 20260831064018 | 17 | 123 | 1.6 | 11.3 | 0.25 | 4.95 | 3.56 | 69 | 974.3 |
| 20260831063516 | 17 | 143 | 3.2 | 11.3 | 0.30 | 4.95 | 3.56 | 69 | 974.3 |
| 20260831063016 | 17 | 102 | 4.8 | 11.3 | 0.41 | 4.95 | 3.56 | 69 | 974.3 |
| 20260831062517 | 17 | 134 | 4.8 | 11.3 | 0.71 | 4.95 | 3.56 | 68 | 974.4 |
| 20260831062015 | 17 | 150 | 1.6 | 11.3 | 1.12 | 4.93 | 3.53 | 68 | 973.7 |
| 20260831061514 | 17 | 98 | 3.2 | 11.3 | 1.52 | 4.93 | 3.53 | 68 | 973.1 |
| 20260831061011 | 18 | 96 | 0.0 | 4.8 | 2.41 | 4.85 | 3.45 | 68 | 974.0 |
| 20260831060511 | 18 | 96 | 0.0 | 6.4 | 3.12 | 4.83 | 3.43 | 68 | 974.0 |